Torna al catalogo

FENGYUN 1C DEB

AttivoSSO
NORAD 31739·DEBRIS·🇨🇳 China

Lanciato May 10, 1999 da Taiyuan Satellite Launch Center

Loading…

Prossimi Passaggi (prossime 24 ore)

TLE

AggiornatoSource: Space-Track

Epoca: Sep 12, 2026, 09:31 UTC

1 31739U 99025CEN 26255.39666864  .00000076  00000-0  52742-4 0  9993
2 31739  98.7101 311.7090 0127364  11.3401 349.0598 14.19328782993683

Traccia FENGYUN 1C DEB in tempo reale con AllMySat

Download on the App Store